Time,TemperatureF,DewpointF,PressureIn,WindDirection,WindDirectionDegrees,WindSpeedMPH,WindSpeedGustMPH,Humidity,HourlyPrecipIn,Conditions,Clouds,dailyrainin,SoftwareType,DateUTC
2013-05-11 00:01:00,56.7,51.9,29.99,NNW,331,4.0,8.0,84,0.00,,,0.00,WUHU216DAVISVP2,2013-05-11 05:01:00,
2013-05-11 00:06:00,56.6,51.8,29.99,NW,309,4.0,8.0,84,0.00,,,0.00,WUHU216DAVISVP2,2013-05-11 05:06:00,
2013-05-11 00:11:00,56.6,52.1,29.99,NNW,336,4.0,8.0,85,0.00,,,0.00,WUHU216DAVISVP2,2013-05-11 05:11:00,
2013-05-11 00:16:00,56.6,52.1,29.99,NNW,328,5.0,7.0,85,0.00,,,0.00,WUHU216DAVISVP2,2013-05-11 05:16:00,
2013-05-11 00:21:00,56.5,51.7,30.00,NNW,336,7.0,8.0,84,0.00,,,0.00,WUHU216DAVISVP2,2013-05-11 05:21:00,
2013-05-11 00:26:00,56.4,51.9,30.00,NNW,342,3.0,8.0,85,0.00,,,0.00,WUHU216DAVISVP2,2013-05-11 05:26:00,
2013-05-11 00:31:00,56.3,51.8,30.00,NNW,327,4.0,6.0,85,0.00,,,0.00,WUHU216DAVISVP2,2013-05-11 05:31:00,
2013-05-11 00:36:00,56.2,51.8,29.99,NW,321,2.0,8.0,85,0.00,,,0.00,WUHU216DAVISVP2,2013-05-11 05:36:00,
2013-05-11 00:41:00,56.2,51.8,29.99,NW,316,4.0,8.0,85,0.00,,,0.00,WUHU216DAVISVP2,2013-05-11 05:41:00,
2013-05-11 00:46:00,56.2,51.8,29.99,NNW,337,4.0,7.0,85,0.00,,,0.00,WUHU216DAVISVP2,2013-05-11 05:46:00,
2013-05-11 00:51:00,56.1,51.7,29.99,NNW,330,4.0,9.0,85,0.00,,,0.00,WUHU216DAVISVP2,2013-05-11 05:51:00,
2013-05-11 00:56:00,56.0,51.6,29.99,NW,323,5.0,9.0,85,0.00,,,0.00,WUHU216DAVISVP2,2013-05-11 05:56:00,
2013-05-11 01:01:00,56.0,51.6,29.99,NW,317,4.0,8.0,85,0.00,,,0.00,WUHU216DAVISVP2,2013-05-11 06:01:00,
2013-05-11 01:06:00,55.9,51.8,29.99,NNW,335,4.0,6.0,86,0.00,,,0.00,WUHU216DAVISVP2,2013-05-11 06:06:00,
2013-05-11 01:11:00,55.9,52.1,29.99,NNE,14,3.0,6.0,87,0.00,,,0.00,WUHU216DAVISVP2,2013-05-11 06:11:00,
2013-05-11 01:16:00,55.8,51.7,29.99,NNW,345,5.0,7.0,86,0.00,,,0.00,WUHU216DAVISVP2,2013-05-11 06:16:00,
2013-05-11 01:21:00,55.7,51.3,29.99,NNW,333,3.0,7.0,85,0.00,,,0.00,WUHU216DAVISVP2,2013-05-11 06:21:00,
2013-05-11 01:26:00,55.7,51.3,29.99,NW,310,5.0,7.0,85,0.00,,,0.00,WUHU216DAVISVP2,2013-05-11 06:26:00,
2013-05-11 01:31:00,55.6,51.2,29.99,NW,316,3.0,7.0,85,0.00,,,0.00,WUHU216DAVISVP2,2013-05-11 06:31:00,
2013-05-11 01:36:00,55.6,51.2,29.99,NNW,329,2.0,6.0,85,0.00,,,0.00,WUHU216DAVISVP2,2013-05-11 06:36:00,
2013-05-11 01:41:00,55.5,50.8,29.99,NW,321,6.0,8.0,84,0.00,,,0.00,WUHU216DAVISVP2,2013-05-11 06:41:00,
2013-05-11 01:46:00,55.5,51.1,29.99,WNW,286,4.0,8.0,85,0.00,,,0.00,WUHU216DAVISVP2,2013-05-11 06:46:00,
2013-05-11 01:51:00,55.5,51.4,30.00,NNW,337,4.0,8.0,86,0.00,,,0.00,WUHU216DAVISVP2,2013-05-11 06:51:00,
2013-05-11 01:56:00,55.4,51.3,30.00,NW,318,2.0,7.0,86,0.00,,,0.00,WUHU216DAVISVP2,2013-05-11 06:56:00,
2013-05-11 02:01:00,55.4,51.0,30.00,NW,326,4.0,7.0,85,0.00,,,0.00,WUHU216DAVISVP2,2013-05-11 07:01:00,
2013-05-11 02:06:00,55.3,51.2,30.00,NW,321,4.0,7.0,86,0.00,,,0.00,WUHU216DAVISVP2,2013-05-11 07:06:00,
2013-05-11 02:11:00,55.2,51.1,29.99,NNW,328,5.0,10.0,86,0.00,,,0.00,WUHU216DAVISVP2,2013-05-11 07:11:00,
2013-05-11 02:16:00,55.1,51.0,29.99,NNW,333,8.0,10.0,86,0.00,,,0.00,WUHU216DAVISVP2,2013-05-11 07:16:00,
2013-05-11 02:21:00,55.1,51.3,29.99,NNW,337,7.0,10.0,87,0.00,,,0.00,WUHU216DAVISVP2,2013-05-11 07:21:00,
2013-05-11 02:26:00,55.1,51.3,29.99,NW,307,4.0,10.0,87,0.00,,,0.00,WUHU216DAVISVP2,2013-05-11 07:26:00,
2013-05-11 02:31:00,54.9,50.8,29.99,NW,320,5.0,8.0,86,0.00,,,0.00,WUHU216DAVISVP2,2013-05-11 07:31:00,
2013-05-11 02:36:00,54.9,50.8,29.99,NW,323,8.0,9.0,86,0.00,,,0.00,WUHU216DAVISVP2,2013-05-11 07:36:00,
2013-05-11 02:41:00,54.8,51.0,29.99,NW,325,7.0,9.0,87,0.00,,,0.00,WUHU216DAVISVP2,2013-05-11 07:41:00,
2013-05-11 02:46:00,54.7,50.9,29.98,NNW,327,3.0,9.0,87,0.00,,,0.00,WUHU216DAVISVP2,2013-05-11 07:46:00,
2013-05-11 02:51:00,54.7,50.9,29.98,NW,308,4.0,9.0,87,0.00,,,0.00,WUHU216DAVISVP2,2013-05-11 07:51:00,
2013-05-11 02:56:00,54.6,50.8,29.99,NW,305,3.0,8.0,87,0.00,,,0.00,WUHU216DAVISVP2,2013-05-11 07:56:00,
2013-05-11 03:01:00,54.6,50.8,29.99,NNW,340,5.0,8.0,87,0.00,,,0.00,WUHU216DAVISVP2,2013-05-11 08:01:00,
2013-05-11 03:06:00,54.6,51.1,29.99,NNW,327,3.0,8.0,88,0.00,,,0.00,WUHU216DAVISVP2,2013-05-11 08:06:00,
2013-05-11 03:11:00,54.6,50.8,29.99,NW,318,7.0,7.0,87,0.00,,,0.00,WUHU216DAVISVP2,2013-05-11 08:11:00,
2013-05-11 03:16:00,54.5,51.0,29.99,NNW,333,7.0,8.0,88,0.00,,,0.00,WUHU216DAVISVP2,2013-05-11 08:16:00,
2013-05-11 03:21:00,54.5,51.0,29.99,NW,321,6.0,8.0,88,0.00,,,0.00,WUHU216DAVISVP2,2013-05-11 08:21:00,
2013-05-11 03:26:00,54.5,51.0,29.99,NW,317,4.0,8.0,88,0.00,,,0.00,WUHU216DAVISVP2,2013-05-11 08:26:00,
2013-05-11 03:31:00,54.5,51.0,29.98,NNW,341,6.0,8.0,88,0.00,,,0.00,WUHU216DAVISVP2,2013-05-11 08:31:00,
2013-05-11 03:36:00,54.5,51.0,29.98,NW,320,6.0,8.0,88,0.00,,,0.00,WUHU216DAVISVP2,2013-05-11 08:36:00,
2013-05-11 03:41:00,54.5,51.0,29.97,NW,325,7.0,9.0,88,0.00,,,0.00,WUHU216DAVISVP2,2013-05-11 08:41:00,
2013-05-11 03:46:00,54.4,50.9,29.98,NW,313,7.0,9.0,88,0.00,,,0.00,WUHU216DAVISVP2,2013-05-11 08:46:00,
2013-05-11 03:51:00,54.4,50.6,29.98,NW,319,8.0,10.0,87,0.00,,,0.00,WUHU216DAVISVP2,2013-05-11 08:51:00,
2013-05-11 03:56:00,54.4,50.6,29.98,NW,316,4.0,10.0,87,0.00,,,0.00,WUHU216DAVISVP2,2013-05-11 08:56:00,
2013-05-11 04:01:00,54.4,50.9,29.98,NNW,333,4.0,9.0,88,0.00,,,0.00,WUHU216DAVISVP2,2013-05-11 09:01:00,
2013-05-11 04:06:00,54.4,50.9,29.98,NW,317,4.0,8.0,88,0.00,,,0.00,WUHU216DAVISVP2,2013-05-11 09:06:00,
2013-05-11 04:11:00,54.3,50.8,29.97,NNW,334,6.0,10.0,88,0.00,,,0.00,WUHU216DAVISVP2,2013-05-11 09:11:00,
2013-05-11 04:16:00,54.3,50.8,29.98,NNW,330,5.0,10.0,88,0.00,,,0.00,WUHU216DAVISVP2,2013-05-11 09:16:00,
2013-05-11 04:21:00,54.2,50.7,29.98,NNW,328,7.0,8.0,88,0.00,,,0.00,WUHU216DAVISVP2,2013-05-11 09:21:00,
2013-05-11 04:26:00,54.2,50.7,29.97,NW,320,5.0,7.0,88,0.00,,,0.00,WUHU216DAVISVP2,2013-05-11 09:26:00,
2013-05-11 04:31:00,54.2,51.0,29.97,NW,319,7.0,7.0,89,0.00,,,0.00,WUHU216DAVISVP2,2013-05-11 09:31:00,
2013-05-11 04:36:00,54.2,51.0,29.97,WNW,302,6.0,7.0,89,0.00,,,0.00,WUHU216DAVISVP2,2013-05-11 09:36:00,
2013-05-11 04:41:00,54.1,50.9,29.98,NW,323,4.0,7.0,89,0.00,,,0.00,WUHU216DAVISVP2,2013-05-11 09:41:00,
2013-05-11 04:46:00,54.1,50.9,29.98,NNW,331,3.0,7.0,89,0.00,,,0.00,WUHU216DAVISVP2,2013-05-11 09:46:00,
2013-05-11 04:51:00,54.1,50.9,29.98,NW,321,6.0,7.0,89,0.00,,,0.00,WUHU216DAVISVP2,2013-05-11 09:51:00,
2013-05-11 04:56:00,54.1,50.9,29.98,NW,319,4.0,8.0,89,0.00,,,0.00,WUHU216DAVISVP2,2013-05-11 09:56:00,
2013-05-11 05:01:00,54.0,50.8,29.98,NW,321,3.0,8.0,89,0.00,,,0.00,WUHU216DAVISVP2,2013-05-11 10:01:00,
2013-05-11 05:06:00,54.0,50.8,29.98,WNW,298,6.0,9.0,89,0.00,,,0.00,WUHU216DAVISVP2,2013-05-11 10:06:00,
2013-05-11 05:11:00,53.9,50.7,29.98,NW,323,11.0,11.0,89,0.00,,,0.00,WUHU216DAVISVP2,2013-05-11 10:11:00,
2013-05-11 05:16:00,53.9,50.7,29.98,NW,309,4.0,11.0,89,0.00,,,0.00,WUHU216DAVISVP2,2013-05-11 10:16:00,
2013-05-11 05:21:00,53.9,50.7,29.98,NW,321,5.0,8.0,89,0.00,,,0.00,WUHU216DAVISVP2,2013-05-11 10:21:00,
2013-05-11 05:26:00,53.8,50.6,29.99,NW,321,2.0,6.0,89,0.00,,,0.00,WUHU216DAVISVP2,2013-05-11 10:26:00,
2013-05-11 05:31:00,53.8,50.6,29.98,NNW,331,6.0,6.0,89,0.00,,,0.00,WUHU216DAVISVP2,2013-05-11 10:31:00,
2013-05-11 05:36:00,53.8,50.9,29.98,NW,304,3.0,6.0,90,0.00,,,0.00,WUHU216DAVISVP2,2013-05-11 10:36:00,
2013-05-11 05:41:00,53.8,50.9,29.98,NW,325,4.0,6.0,90,0.00,,,0.00,WUHU216DAVISVP2,2013-05-11 10:41:00,
2013-05-11 05:46:00,53.8,50.9,29.98,NW,324,3.0,6.0,90,0.00,,,0.00,WUHU216DAVISVP2,2013-05-11 10:46:00,
2013-05-11 05:51:00,53.8,50.9,29.98,NW,325,3.0,6.0,90,0.00,,,0.00,WUHU216DAVISVP2,2013-05-11 10:51:00,
2013-05-11 05:56:00,53.7,50.8,29.98,NW,326,2.0,6.0,90,0.00,,,0.00,WUHU216DAVISVP2,2013-05-11 10:56:00,
2013-05-11 06:01:00,53.7,50.8,29.98,North,351,4.0,7.0,90,0.00,,,0.00,WUHU216DAVISVP2,2013-05-11 11:01:00,
2013-05-11 06:06:00,53.6,50.7,29.98,NW,306,4.0,7.0,90,0.00,,,0.00,WUHU216DAVISVP2,2013-05-11 11:06:00,
2013-05-11 06:11:00,53.6,50.7,29.98,WNW,287,4.0,6.0,90,0.00,,,0.00,WUHU216DAVISVP2,2013-05-11 11:11:00,
2013-05-11 06:16:00,53.6,50.7,29.98,North,359,3.0,7.0,90,0.00,,,0.00,WUHU216DAVISVP2,2013-05-11 11:16:00,
2013-05-11 06:21:00,53.6,50.7,29.98,North,11,2.0,7.0,90,0.00,,,0.00,WUHU216DAVISVP2,2013-05-11 11:21:00,
2013-05-11 06:26:00,53.7,50.8,29.98,NW,319,2.0,7.0,90,0.00,,,0.00,WUHU216DAVISVP2,2013-05-11 11:26:00,
2013-05-11 06:31:00,53.7,50.8,29.99,NW,326,3.0,6.0,90,0.00,,,0.00,WUHU216DAVISVP2,2013-05-11 11:31:00,
2013-05-11 06:36:00,53.7,50.8,29.99,WNW,297,2.0,8.0,90,0.00,,,0.00,WUHU216DAVISVP2,2013-05-11 11:36:00,
2013-05-11 06:41:00,53.7,50.8,29.99,NW,306,5.0,8.0,90,0.00,,,0.00,WUHU216DAVISVP2,2013-05-11 11:41:00,
2013-05-11 06:46:00,53.7,50.8,29.99,NNE,23,2.0,6.0,90,0.00,,,0.00,WUHU216DAVISVP2,2013-05-11 11:46:00,
2013-05-11 06:51:00,53.7,50.8,29.99,WNW,297,1.0,6.0,90,0.00,,,0.00,WUHU216DAVISVP2,2013-05-11 11:51:00,
2013-05-11 06:56:00,53.9,51.0,29.99,NW,323,5.0,6.0,90,0.00,,,0.00,WUHU216DAVISVP2,2013-05-11 11:56:00,
2013-05-11 07:01:00,53.8,50.6,29.99,NNW,327,4.0,6.0,89,0.00,,,0.00,WUHU216DAVISVP2,2013-05-11 12:01:00,
2013-05-11 07:06:00,54.0,51.1,30.00,NW,323,1.0,6.0,90,0.00,,,0.00,WUHU216DAVISVP2,2013-05-11 12:06:00,
2013-05-11 07:11:00,54.2,51.0,30.00,West,280,2.0,4.0,89,0.00,,,0.00,WUHU216DAVISVP2,2013-05-11 12:11:00,
2013-05-11 07:16:00,54.2,51.0,30.00,NW,318,1.0,3.0,89,0.00,,,0.00,WUHU216DAVISVP2,2013-05-11 12:16:00,
2013-05-11 07:21:00,54.2,51.0,30.00,NNW,340,1.0,2.0,89,0.00,,,0.00,WUHU216DAVISVP2,2013-05-11 12:21:00,
2013-05-11 07:26:00,54.3,50.8,30.00,NW,311,2.0,5.0,88,0.00,,,0.00,WUHU216DAVISVP2,2013-05-11 12:26:00,
2013-05-11 07:31:00,54.3,50.8,30.00,NW,326,4.0,7.0,88,0.00,,,0.00,WUHU216DAVISVP2,2013-05-11 12:31:00,
2013-05-11 07:36:00,54.5,51.3,30.00,NW,325,2.0,7.0,89,0.00,,,0.00,WUHU216DAVISVP2,2013-05-11 12:36:00,
2013-05-11 07:41:00,54.5,50.7,30.00,NW,309,5.0,7.0,87,0.00,,,0.00,WUHU216DAVISVP2,2013-05-11 12:41:00,
2013-05-11 07:46:00,54.6,51.1,30.00,NW,325,6.0,7.0,88,0.00,,,0.00,WUHU216DAVISVP2,2013-05-11 12:46:00,
2013-05-11 07:51:00,54.6,50.8,30.01,NW,319,5.0,7.0,87,0.00,,,0.00,WUHU216DAVISVP2,2013-05-11 12:51:00,
2013-05-11 07:56:00,54.6,50.2,30.01,SW,221,2.0,7.0,85,0.00,,,0.00,WUHU216DAVISVP2,2013-05-11 12:56:00,
2013-05-11 08:01:00,54.8,50.4,30.01,WSW,250,2.0,7.0,85,0.00,,,0.00,WUHU216DAVISVP2,2013-05-11 13:01:00,
2013-05-11 08:06:00,54.8,50.1,30.01,NW,323,4.0,7.0,84,0.00,,,0.00,WUHU216DAVISVP2,2013-05-11 13:06:00,
2013-05-11 08:11:00,54.9,50.2,30.01,NW,326,2.0,7.0,84,0.00,,,0.00,WUHU216DAVISVP2,2013-05-11 13:11:00,
2013-05-11 08:16:00,55.0,49.9,30.01,West,278,4.0,7.0,83,0.00,,,0.00,WUHU216DAVISVP2,2013-05-11 13:16:00,
2013-05-11 08:21:00,55.0,49.9,30.01,NW,306,5.0,7.0,83,0.00,,,0.00,WUHU216DAVISVP2,2013-05-11 13:21:00,
2013-05-11 08:26:00,55.1,50.4,30.01,NW,309,3.0,7.0,84,0.00,,,0.00,WUHU216DAVISVP2,2013-05-11 13:26:00,
2013-05-11 08:31:00,55.1,49.4,30.01,NW,313,4.0,10.0,81,0.00,,,0.00,WUHU216DAVISVP2,2013-05-11 13:31:00,
2013-05-11 08:36:00,55.1,49.1,30.01,NNW,339,9.0,10.0,80,0.00,,,0.00,WUHU216DAVISVP2,2013-05-11 13:36:00,
2013-05-11 08:41:00,55.3,49.0,30.02,NW,323,7.0,12.0,79,0.00,,,0.00,WUHU216DAVISVP2,2013-05-11 13:41:00,
2013-05-11 08:46:00,55.5,48.8,30.02,NNW,337,5.0,12.0,78,0.00,,,0.00,WUHU216DAVISVP2,2013-05-11 13:46:00,
2013-05-11 08:51:00,55.8,49.1,30.01,NW,316,8.0,9.0,78,0.00,,,0.00,WUHU216DAVISVP2,2013-05-11 13:51:00,
2013-05-11 08:56:00,56.0,50.0,30.01,North,6,9.0,9.0,80,0.00,,,0.00,WUHU216DAVISVP2,2013-05-11 13:56:00,
2013-05-11 09:01:00,56.2,49.5,30.01,NW,314,5.0,10.0,78,0.00,,,0.00,WUHU216DAVISVP2,2013-05-11 14:01:00,
2013-05-11 09:06:00,56.3,50.3,30.01,NNW,337,3.0,10.0,80,0.00,,,0.00,WUHU216DAVISVP2,2013-05-11 14:06:00,
2013-05-11 09:11:00,56.6,49.9,30.01,NNW,332,6.0,8.0,78,0.00,,,0.00,WUHU216DAVISVP2,2013-05-11 14:11:00,
2013-05-11 09:16:00,57.0,49.9,30.02,North,359,7.0,9.0,77,0.00,,,0.00,WUHU216DAVISVP2,2013-05-11 14:16:00,
2013-05-11 09:21:00,57.6,50.9,30.02,NW,321,8.0,10.0,78,0.00,,,0.00,WUHU216DAVISVP2,2013-05-11 14:21:00,
2013-05-11 09:26:00,57.8,50.7,30.02,NNW,340,7.0,10.0,77,0.00,,,0.00,WUHU216DAVISVP2,2013-05-11 14:26:00,
2013-05-11 09:31:00,57.6,50.9,30.02,WNW,283,4.0,9.0,78,0.00,,,0.00,WUHU216DAVISVP2,2013-05-11 14:31:00,
2013-05-11 09:36:00,57.7,50.6,30.01,WNW,298,5.0,8.0,77,0.00,,,0.00,WUHU216DAVISVP2,2013-05-11 14:36:00,
2013-05-11 09:41:00,57.9,50.7,30.01,WNW,284,1.0,8.0,77,0.00,,,0.00,WUHU216DAVISVP2,2013-05-11 14:41:00,
2013-05-11 09:46:00,58.5,50.6,30.02,WSW,250,4.0,8.0,75,0.00,,,0.00,WUHU216DAVISVP2,2013-05-11 14:46:00,
2013-05-11 09:51:00,58.3,50.8,30.02,NW,325,5.0,8.0,76,0.00,,,0.00,WUHU216DAVISVP2,2013-05-11 14:51:00,
2013-05-11 09:56:00,58.6,51.4,30.01,NNW,333,4.0,10.0,77,0.00,,,0.00,WUHU216DAVISVP2,2013-05-11 14:56:00,
2013-05-11 10:01:00,58.9,51.4,30.01,WSW,257,10.0,10.0,76,0.00,,,0.00,WUHU216DAVISVP2,2013-05-11 15:01:00,
2013-05-11 10:06:00,58.8,51.6,30.01,West,277,6.0,10.0,77,0.00,,,0.00,WUHU216DAVISVP2,2013-05-11 15:06:00,
2013-05-11 10:11:00,59.3,52.1,30.01,NNW,338,7.0,11.0,77,0.00,,,0.00,WUHU216DAVISVP2,2013-05-11 15:11:00,
2013-05-11 10:16:00,59.5,51.7,30.00,NW,321,6.0,12.0,75,0.00,,,0.00,WUHU216DAVISVP2,2013-05-11 15:16:00,
2013-05-11 10:21:00,59.9,51.7,30.00,NW,319,6.0,15.0,74,0.00,,,0.00,WUHU216DAVISVP2,2013-05-11 15:21:00,
2013-05-11 10:26:00,60.0,51.8,30.00,NW,311,7.0,15.0,74,0.00,,,0.00,WUHU216DAVISVP2,2013-05-11 15:26:00,
2013-05-11 10:31:00,60.6,52.7,30.00,NW,326,2.0,12.0,75,0.00,,,0.00,WUHU216DAVISVP2,2013-05-11 15:31:00,
2013-05-11 10:36:00,60.9,52.3,30.00,NW,326,7.0,11.0,73,0.00,,,0.00,WUHU216DAVISVP2,2013-05-11 15:36:00,
2013-05-11 10:41:00,61.3,53.8,30.00,WNW,298,4.0,11.0,76,0.00,,,0.00,WUHU216DAVISVP2,2013-05-11 15:41:00,
2013-05-11 10:46:00,62.1,54.2,30.00,NW,322,8.0,10.0,75,0.00,,,0.00,WUHU216DAVISVP2,2013-05-11 15:46:00,
2013-05-11 10:51:00,62.2,53.2,30.00,WNW,289,6.0,8.0,72,0.00,,,0.00,WUHU216DAVISVP2,2013-05-11 15:51:00,
2013-05-11 10:56:00,62.3,53.7,30.00,West,273,2.0,7.0,73,0.00,,,0.00,WUHU216DAVISVP2,2013-05-11 15:56:00,
2013-05-11 11:01:00,62.4,53.0,30.00,WNW,287,6.0,10.0,71,0.00,,,0.00,WUHU216DAVISVP2,2013-05-11 16:01:00,
2013-05-11 11:06:00,62.7,53.3,30.01,NNW,341,4.0,10.0,71,0.00,,,0.00,WUHU216DAVISVP2,2013-05-11 16:06:00,
2013-05-11 11:11:00,62.3,52.5,30.01,NNW,331,4.0,11.0,70,0.00,,,0.00,WUHU216DAVISVP2,2013-05-11 16:11:00,
2013-05-11 11:16:00,63.0,52.8,30.01,WNW,293,2.0,11.0,69,0.00,,,0.00,WUHU216DAVISVP2,2013-05-11 16:16:00,
2013-05-11 11:21:00,63.1,53.3,30.01,North,349,2.0,10.0,70,0.00,,,0.00,WUHU216DAVISVP2,2013-05-11 16:21:00,
2013-05-11 11:26:00,63.3,53.9,30.01,West,281,3.0,10.0,71,0.00,,,0.00,WUHU216DAVISVP2,2013-05-11 16:26:00,
2013-05-11 11:31:00,63.9,53.3,30.00,NNW,336,8.0,9.0,68,0.00,,,0.00,WUHU216DAVISVP2,2013-05-11 16:31:00,
2013-05-11 11:36:00,63.7,53.5,30.00,WNW,300,5.0,8.0,69,0.00,,,0.00,WUHU216DAVISVP2,2013-05-11 16:36:00,
2013-05-11 11:41:00,63.5,52.9,30.00,NW,304,1.0,8.0,68,0.00,,,0.00,WUHU216DAVISVP2,2013-05-11 16:41:00,
2013-05-11 11:46:00,64.1,53.9,30.00,West,262,4.0,8.0,69,0.00,,,0.00,WUHU216DAVISVP2,2013-05-11 16:46:00,
2013-05-11 11:51:00,64.3,53.7,30.00,West,270,2.0,11.0,68,0.00,,,0.00,WUHU216DAVISVP2,2013-05-11 16:51:00,
2013-05-11 11:56:00,65.0,54.3,30.00,WSW,252,3.0,11.0,68,0.00,,,0.00,WUHU216DAVISVP2,2013-05-11 16:56:00,
2013-05-11 12:01:00,65.3,54.2,30.00,NNW,328,4.0,11.0,67,0.00,,,0.00,WUHU216DAVISVP2,2013-05-11 17:01:00,
2013-05-11 12:06:00,65.4,54.3,29.99,WSW,243,5.0,11.0,67,0.00,,,0.00,WUHU216DAVISVP2,2013-05-11 17:06:00,
2013-05-11 12:11:00,65.8,54.3,30.00,NNE,13,4.0,11.0,66,0.00,,,0.00,WUHU216DAVISVP2,2013-05-11 17:11:00,
2013-05-11 12:16:00,66.8,54.4,30.00,NNW,332,12.0,12.0,64,0.00,,,0.00,WUHU216DAVISVP2,2013-05-11 17:16:00,
2013-05-11 12:21:00,66.2,54.7,29.99,WSW,246,1.0,12.0,66,0.00,,,0.00,WUHU216DAVISVP2,2013-05-11 17:21:00,
2013-05-11 12:26:00,66.8,55.7,29.99,NW,306,3.0,8.0,67,0.00,,,0.00,WUHU216DAVISVP2,2013-05-11 17:26:00,
2013-05-11 12:31:00,67.2,54.8,29.99,NNW,335,6.0,8.0,64,0.00,,,0.00,WUHU216DAVISVP2,2013-05-11 17:31:00,
2013-05-11 12:36:00,67.2,55.2,29.99,West,265,4.0,8.0,65,0.00,,,0.00,WUHU216DAVISVP2,2013-05-11 17:36:00,
2013-05-11 12:41:00,67.1,56.4,29.98,WNW,288,1.0,8.0,68,0.00,,,0.00,WUHU216DAVISVP2,2013-05-11 17:41:00,
2013-05-11 12:46:00,67.9,56.3,29.98,North,6,4.0,8.0,66,0.00,,,0.00,WUHU216DAVISVP2,2013-05-11 17:46:00,
2013-05-11 12:51:00,67.9,55.9,29.98,WNW,289,6.0,8.0,65,0.00,,,0.00,WUHU216DAVISVP2,2013-05-11 17:51:00,
2013-05-11 12:56:00,68.0,55.5,29.98,ENE,65,3.0,8.0,64,0.00,,,0.00,WUHU216DAVISVP2,2013-05-11 17:56:00,
2013-05-11 13:01:00,68.6,55.2,29.98,NW,313,4.0,8.0,62,0.00,,,0.00,WUHU216DAVISVP2,2013-05-11 18:01:00,
2013-05-11 13:06:00,68.4,55.9,29.98,WNW,285,5.0,8.0,64,0.00,,,0.00,WUHU216DAVISVP2,2013-05-11 18:06:00,
2013-05-11 13:11:00,68.9,56.4,29.98,West,277,5.0,9.0,64,0.00,,,0.00,WUHU216DAVISVP2,2013-05-11 18:11:00,
2013-05-11 13:16:00,69.2,54.9,29.98,SW,214,5.0,9.0,60,0.00,,,0.00,WUHU216DAVISVP2,2013-05-11 18:16:00,
2013-05-11 13:21:00,69.2,54.9,29.98,NW,305,6.0,11.0,60,0.00,,,0.00,WUHU216DAVISVP2,2013-05-11 18:21:00,
2013-05-11 13:26:00,69.5,54.2,29.98,WSW,257,9.0,12.0,58,0.00,,,0.00,WUHU216DAVISVP2,2013-05-11 18:26:00,
2013-05-11 13:31:00,69.3,55.9,29.97,WNW,290,3.0,12.0,62,0.00,,,0.00,WUHU216DAVISVP2,2013-05-11 18:31:00,
2013-05-11 13:36:00,69.7,54.4,29.97,West,277,3.0,12.0,58,0.00,,,0.00,WUHU216DAVISVP2,2013-05-11 18:36:00,
2013-05-11 13:41:00,69.4,55.1,29.98,West,267,4.0,12.0,60,0.00,,,0.00,WUHU216DAVISVP2,2013-05-11 18:41:00,
2013-05-11 13:46:00,69.4,55.5,29.97,West,262,7.0,13.0,61,0.00,,,0.00,WUHU216DAVISVP2,2013-05-11 18:46:00,
2013-05-11 13:51:00,70.2,55.4,29.97,NNW,332,9.0,13.0,59,0.00,,,0.00,WUHU216DAVISVP2,2013-05-11 18:51:00,
2013-05-11 13:56:00,70.5,54.2,29.98,NNW,329,5.0,13.0,56,0.00,,,0.00,WUHU216DAVISVP2,2013-05-11 18:56:00,
2013-05-11 14:01:00,70.5,55.2,29.97,WNW,300,3.0,13.0,58,0.00,,,0.00,WUHU216DAVISVP2,2013-05-11 19:01:00,
2013-05-11 14:06:00,70.4,55.1,29.97,WNW,290,3.0,11.0,58,0.00,,,0.00,WUHU216DAVISVP2,2013-05-11 19:06:00,
2013-05-11 14:11:00,70.4,55.1,29.97,North,350,7.0,11.0,58,0.00,,,0.00,WUHU216DAVISVP2,2013-05-11 19:11:00,
2013-05-11 14:16:00,69.8,54.5,29.97,WNW,283,8.0,15.0,58,0.00,,,0.00,WUHU216DAVISVP2,2013-05-11 19:16:00,
2013-05-11 14:21:00,69.7,54.9,29.97,NW,317,9.0,15.0,59,0.00,,,0.00,WUHU216DAVISVP2,2013-05-11 19:21:00,
2013-05-11 14:26:00,70.5,56.1,29.97,West,259,6.0,11.0,60,0.00,,,0.00,WUHU216DAVISVP2,2013-05-11 19:26:00,
2013-05-11 14:31:00,71.0,55.2,29.97,North,7,11.0,12.0,57,0.00,,,0.00,WUHU216DAVISVP2,2013-05-11 19:31:00,
2013-05-11 14:36:00,69.9,53.6,29.97,WNW,293,3.0,20.0,56,0.00,,,0.00,WUHU216DAVISVP2,2013-05-11 19:36:00,
2013-05-11 14:41:00,69.4,53.7,29.97,NW,319,7.0,20.0,57,0.00,,,0.00,WUHU216DAVISVP2,2013-05-11 19:41:00,
2013-05-11 14:46:00,68.9,54.1,29.97,NNW,329,10.0,11.0,59,0.00,,,0.00,WUHU216DAVISVP2,2013-05-11 19:46:00,
2013-05-11 14:51:00,68.3,54.0,29.97,NW,315,9.0,11.0,60,0.00,,,0.00,WUHU216DAVISVP2,2013-05-11 19:51:00,
2013-05-11 14:56:00,67.9,54.1,29.97,NNW,328,6.0,11.0,61,0.00,,,0.00,WUHU216DAVISVP2,2013-05-11 19:56:00,
2013-05-11 15:01:00,67.7,53.5,29.97,NNW,335,9.0,11.0,60,0.00,,,0.00,WUHU216DAVISVP2,2013-05-11 20:01:00,
2013-05-11 15:06:00,67.9,53.7,29.97,WNW,300,11.0,13.0,60,0.00,,,0.00,WUHU216DAVISVP2,2013-05-11 20:06:00,
2013-05-11 15:11:00,68.8,55.0,29.97,WNW,293,10.0,13.0,61,0.00,,,0.00,WUHU216DAVISVP2,2013-05-11 20:11:00,
2013-05-11 15:16:00,69.5,54.7,29.97,NNW,328,17.0,17.0,59,0.00,,,0.00,WUHU216DAVISVP2,2013-05-11 20:16:00,
2013-05-11 15:21:00,68.6,55.7,29.97,NW,322,11.0,20.0,63,0.00,,,0.00,WUHU216DAVISVP2,2013-05-11 20:21:00,
2013-05-11 15:26:00,68.6,54.8,29.97,WNW,300,8.0,20.0,61,0.00,,,0.00,WUHU216DAVISVP2,2013-05-11 20:26:00,
2013-05-11 15:31:00,69.3,53.6,29.97,NW,320,9.0,16.0,57,0.00,,,0.00,WUHU216DAVISVP2,2013-05-11 20:31:00,
2013-05-11 15:36:00,69.0,52.3,29.97,WNW,301,18.0,19.0,55,0.00,,,0.00,WUHU216DAVISVP2,2013-05-11 20:36:00,
2013-05-11 15:41:00,68.6,50.4,29.97,NW,321,18.0,19.0,52,0.00,,,0.00,WUHU216DAVISVP2,2013-05-11 20:41:00,
2013-05-11 15:46:00,69.0,50.2,29.97,NW,323,10.0,19.0,51,0.00,,,0.00,WUHU216DAVISVP2,2013-05-11 20:46:00,
2013-05-11 15:51:00,69.2,50.4,29.97,North,357,19.0,21.0,51,0.00,,,0.00,WUHU216DAVISVP2,2013-05-11 20:51:00,
2013-05-11 15:56:00,69.2,49.8,29.98,NNW,330,16.0,21.0,50,0.00,,,0.00,WUHU216DAVISVP2,2013-05-11 20:56:00,
2013-05-11 16:01:00,68.9,49.5,29.98,NNW,331,13.0,19.0,50,0.00,,,0.00,WUHU216DAVISVP2,2013-05-11 21:01:00,
2013-05-11 16:06:00,68.9,49.5,29.98,North,349,15.0,19.0,50,0.00,,,0.00,WUHU216DAVISVP2,2013-05-11 21:06:00,
2013-05-11 16:11:00,68.5,49.2,29.98,NNW,330,10.0,22.0,50,0.00,,,0.00,WUHU216DAVISVP2,2013-05-11 21:11:00,
2013-05-11 16:16:00,68.6,48.1,29.98,NW,323,13.0,22.0,48,0.00,,,0.00,WUHU216DAVISVP2,2013-05-11 21:16:00,
2013-05-11 16:21:00,68.7,48.2,29.98,NW,307,11.0,19.0,48,0.00,,,0.00,WUHU216DAVISVP2,2013-05-11 21:21:00,
2013-05-11 16:26:00,68.7,47.7,29.98,North,11,16.0,24.0,47,0.00,,,0.00,WUHU216DAVISVP2,2013-05-11 21:26:00,
2013-05-11 16:31:00,68.9,47.8,29.99,NNW,347,20.0,24.0,47,0.00,,,0.00,WUHU216DAVISVP2,2013-05-11 21:31:00,
2013-05-11 16:36:00,69.0,46.1,29.99,NW,324,18.0,20.0,44,0.00,,,0.00,WUHU216DAVISVP2,2013-05-11 21:36:00,
2013-05-11 16:40:00,68.8,45.9,29.99,NW,309,21.0,21.0,44,0.00,,,0.00,WUHU216DAVISVP2,2013-05-11 21:40:00,
2013-05-11 16:45:00,68.5,46.9,29.99,NW,319,12.0,21.0,46,0.00,,,0.00,WUHU216DAVISVP2,2013-05-11 21:45:00,
2013-05-11 16:50:00,68.8,48.3,29.99,NNW,333,13.0,21.0,48,0.00,,,0.00,WUHU216DAVISVP2,2013-05-11 21:50:00,
2013-05-11 16:55:00,68.4,46.2,29.99,NW,322,11.0,20.0,45,0.00,,,0.00,WUHU216DAVISVP2,2013-05-11 21:55:00,
2013-05-11 17:00:00,68.2,46.6,30.00,NW,321,14.0,20.0,46,0.00,,,0.00,WUHU216DAVISVP2,2013-05-11 22:00:00,
2013-05-11 17:05:00,67.7,44.3,30.00,NNW,340,14.0,23.0,43,0.00,,,0.00,WUHU216DAVISVP2,2013-05-11 22:05:00,
2013-05-11 17:10:00,67.7,46.1,30.00,NNW,345,18.0,23.0,46,0.00,,,0.00,WUHU216DAVISVP2,2013-05-11 22:10:00,
2013-05-11 17:15:00,67.5,46.0,30.00,NNW,337,13.0,21.0,46,0.00,,,0.00,WUHU216DAVISVP2,2013-05-11 22:15:00,
2013-05-11 17:20:00,67.5,44.8,30.00,NNW,329,20.0,21.0,44,0.00,,,0.00,WUHU216DAVISVP2,2013-05-11 22:20:00,
2013-05-11 17:25:00,67.5,43.5,30.00,NNE,24,13.0,21.0,42,0.00,,,0.00,WUHU216DAVISVP2,2013-05-11 22:25:00,
2013-05-11 17:30:00,67.3,43.3,30.00,NNW,335,8.0,22.0,42,0.00,,,0.00,WUHU216DAVISVP2,2013-05-11 22:30:00,
2013-05-11 17:35:00,67.2,43.9,30.01,NW,313,11.0,22.0,43,0.00,,,0.00,WUHU216DAVISVP2,2013-05-11 22:35:00,
2013-05-11 17:40:00,67.0,41.2,30.01,NNW,347,19.0,19.0,39,0.00,,,0.00,WUHU216DAVISVP2,2013-05-11 22:40:00,
2013-05-11 17:45:00,66.7,41.6,30.01,WNW,289,7.0,19.0,40,0.00,,,0.00,WUHU216DAVISVP2,2013-05-11 22:45:00,
2013-05-11 17:50:00,66.3,40.4,30.01,NNW,342,21.0,27.0,39,0.00,,,0.00,WUHU216DAVISVP2,2013-05-11 22:50:00,
2013-05-11 17:55:00,65.8,38.6,30.01,NNW,329,18.0,27.0,37,0.00,,,0.00,WUHU216DAVISVP2,2013-05-11 22:55:00,
2013-05-11 18:00:00,65.5,39.7,30.02,NNW,338,18.0,23.0,39,0.00,,,0.00,WUHU216DAVISVP2,2013-05-11 23:00:00,
2013-05-11 18:05:00,65.0,39.3,30.02,North,352,26.0,26.0,39,0.00,,,0.00,WUHU216DAVISVP2,2013-05-11 23:05:00,
2013-05-11 18:10:00,64.7,39.7,30.02,ENE,65,14.0,26.0,40,0.00,,,0.00,WUHU216DAVISVP2,2013-05-11 23:10:00,
2013-05-11 18:15:00,64.5,39.0,30.02,NNW,337,13.0,25.0,39,0.00,,,0.00,WUHU216DAVISVP2,2013-05-11 23:15:00,
2013-05-11 18:20:00,64.2,39.4,30.02,NW,314,18.0,24.0,40,0.00,,,0.00,WUHU216DAVISVP2,2013-05-11 23:20:00,
2013-05-11 18:25:00,64.2,40.0,30.02,NW,316,18.0,24.0,41,0.00,,,0.00,WUHU216DAVISVP2,2013-05-11 23:25:00,
2013-05-11 18:30:00,64.0,39.8,30.02,NW,324,15.0,21.0,41,0.00,,,0.00,WUHU216DAVISVP2,2013-05-11 23:30:00,
2013-05-11 18:35:00,63.8,39.6,30.03,NNW,330,11.0,22.0,41,0.00,,,0.00,WUHU216DAVISVP2,2013-05-11 23:35:00,
2013-05-11 18:40:00,63.6,40.0,30.03,NNW,329,16.0,24.0,42,0.00,,,0.00,WUHU216DAVISVP2,2013-05-11 23:40:00,
2013-05-11 18:45:00,63.3,37.8,30.03,NW,318,14.0,24.0,39,0.00,,,0.00,WUHU216DAVISVP2,2013-05-11 23:45:00,
2013-05-11 18:50:00,63.0,38.8,30.03,NW,316,13.0,24.0,41,0.00,,,0.00,WUHU216DAVISVP2,2013-05-11 23:50:00,
2013-05-11 18:55:00,62.8,38.1,30.04,NNW,344,15.0,24.0,40,0.00,,,0.00,WUHU216DAVISVP2,2013-05-11 23:55:00,
2013-05-11 19:00:00,62.5,38.3,30.04,NNW,333,12.0,22.0,41,0.00,,,0.00,WUHU216DAVISVP2,2013-05-12 00:00:00,
2013-05-11 19:05:00,62.2,38.1,30.04,NW,316,17.0,20.0,41,0.00,,,0.00,WUHU216DAVISVP2,2013-05-12 00:05:00,
2013-05-11 19:10:00,61.9,37.8,30.04,NW,324,13.0,23.0,41,0.00,,,0.00,WUHU216DAVISVP2,2013-05-12 00:10:00,
2013-05-11 19:15:00,61.6,38.2,30.04,NW,321,11.0,23.0,42,0.00,,,0.00,WUHU216DAVISVP2,2013-05-12 00:15:00,
2013-05-11 19:20:00,61.4,38.0,30.04,NW,307,13.0,18.0,42,0.00,,,0.00,WUHU216DAVISVP2,2013-05-12 00:20:00,
2013-05-11 19:25:00,61.1,38.3,30.05,NNW,339,11.0,18.0,43,0.00,,,0.00,WUHU216DAVISVP2,2013-05-12 00:25:00,
2013-05-11 19:30:00,60.7,38.6,30.05,NNE,15,9.0,18.0,44,0.00,,,0.00,WUHU216DAVISVP2,2013-05-12 00:30:00,
2013-05-11 19:35:00,60.3,39.4,30.05,NNW,342,11.0,19.0,46,0.00,,,0.00,WUHU216DAVISVP2,2013-05-12 00:35:00,
2013-05-11 19:40:00,59.7,38.8,30.05,NW,321,14.0,19.0,46,0.00,,,0.00,WUHU216DAVISVP2,2013-05-12 00:40:00,
2013-05-11 19:45:00,59.3,39.0,30.06,NNW,338,11.0,19.0,47,0.00,,,0.00,WUHU216DAVISVP2,2013-05-12 00:45:00,
2013-05-11 19:50:00,59.0,39.3,30.06,NNW,342,10.0,19.0,48,0.00,,,0.00,WUHU216DAVISVP2,2013-05-12 00:50:00,
2013-05-11 19:55:00,58.6,38.9,30.06,NNW,335,11.0,17.0,48,0.00,,,0.00,WUHU216DAVISVP2,2013-05-12 00:55:00,
2013-05-11 20:00:00,58.4,38.8,30.06,NNW,330,10.0,17.0,48,0.00,,,0.00,WUHU216DAVISVP2,2013-05-12 01:00:00,
2013-05-11 20:05:00,58.1,39.0,30.06,NNW,345,5.0,16.0,49,0.00,,,0.00,WUHU216DAVISVP2,2013-05-12 01:05:00,
2013-05-11 20:10:00,57.8,39.3,30.07,NNW,343,7.0,14.0,50,0.00,,,0.00,WUHU216DAVISVP2,2013-05-12 01:10:00,
2013-05-11 20:15:00,57.4,38.9,30.07,NW,311,8.0,14.0,50,0.00,,,0.00,WUHU216DAVISVP2,2013-05-12 01:15:00,
2013-05-11 20:20:00,57.1,38.1,30.07,NNW,336,11.0,15.0,49,0.00,,,0.00,WUHU216DAVISVP2,2013-05-12 01:20:00,
2013-05-11 20:25:00,56.9,38.4,30.08,NNE,12,13.0,15.0,50,0.00,,,0.00,WUHU216DAVISVP2,2013-05-12 01:25:00,
2013-05-11 20:30:00,56.6,38.2,30.08,NW,326,7.0,16.0,50,0.00,,,0.00,WUHU216DAVISVP2,2013-05-12 01:30:00,
2013-05-11 20:35:00,56.4,38.0,30.08,NNW,340,14.0,16.0,50,0.00,,,0.00,WUHU216DAVISVP2,2013-05-12 01:35:00,
2013-05-11 20:40:00,56.3,37.4,30.08,NW,323,8.0,15.0,49,0.00,,,0.00,WUHU216DAVISVP2,2013-05-12 01:40:00,
2013-05-11 20:45:00,56.0,38.1,30.09,NW,326,6.0,15.0,51,0.00,,,0.00,WUHU216DAVISVP2,2013-05-12 01:45:00,
2013-05-11 20:50:00,55.7,37.3,30.09,North,8,9.0,15.0,50,0.00,,,0.00,WUHU216DAVISVP2,2013-05-12 01:50:00,
2013-05-11 20:55:00,55.7,37.3,30.09,NW,323,11.0,12.0,50,0.00,,,0.00,WUHU216DAVISVP2,2013-05-12 01:55:00,
2013-05-11 21:00:00,55.6,37.2,30.09,NNW,330,9.0,13.0,50,0.00,,,0.00,WUHU216DAVISVP2,2013-05-12 02:00:00,
2013-05-11 21:05:00,55.6,36.7,30.09,North,6,11.0,16.0,49,0.00,,,0.00,WUHU216DAVISVP2,2013-05-12 02:05:00,
2013-05-11 21:10:00,55.4,37.1,30.10,NNW,330,10.0,16.0,50,0.00,,,0.00,WUHU216DAVISVP2,2013-05-12 02:10:00,
2013-05-11 21:15:00,55.2,37.9,30.10,WNW,297,7.0,16.0,52,0.00,,,0.00,WUHU216DAVISVP2,2013-05-12 02:15:00,
2013-05-11 21:20:00,55.0,37.7,30.10,NNW,330,10.0,15.0,52,0.00,,,0.00,WUHU216DAVISVP2,2013-05-12 02:20:00,
2013-05-11 21:25:00,54.7,37.9,30.10,NNW,332,5.0,15.0,53,0.00,,,0.00,WUHU216DAVISVP2,2013-05-12 02:25:00,
2013-05-11 21:30:00,54.5,38.2,30.11,NW,326,7.0,12.0,54,0.00,,,0.00,WUHU216DAVISVP2,2013-05-12 02:30:00,
2013-05-11 21:35:00,54.4,38.1,30.11,NW,325,5.0,11.0,54,0.00,,,0.00,WUHU216DAVISVP2,2013-05-12 02:35:00,
2013-05-11 21:40:00,54.1,38.8,30.11,NNW,330,6.0,11.0,56,0.00,,,0.00,WUHU216DAVISVP2,2013-05-12 02:40:00,
2013-05-11 21:45:00,53.8,38.5,30.12,NNW,336,4.0,10.0,56,0.00,,,0.00,WUHU216DAVISVP2,2013-05-12 02:45:00,
2013-05-11 21:50:00,53.4,39.1,30.12,NW,309,5.0,6.0,58,0.00,,,0.00,WUHU216DAVISVP2,2013-05-12 02:50:00,
2013-05-11 21:55:00,53.0,38.7,30.12,NNW,329,6.0,8.0,58,0.00,,,0.00,WUHU216DAVISVP2,2013-05-12 02:55:00,
2013-05-11 22:00:00,53.0,39.1,30.12,NE,50,3.0,8.0,59,0.00,,,0.00,WUHU216DAVISVP2,2013-05-12 03:00:00,
2013-05-11 22:05:00,52.9,39.1,30.12,NNW,333,5.0,8.0,59,0.00,,,0.00,WUHU216DAVISVP2,2013-05-12 03:05:00,
2013-05-11 22:10:00,52.6,38.7,30.13,NNE,33,3.0,8.0,59,0.00,,,0.00,WUHU216DAVISVP2,2013-05-12 03:10:00,
2013-05-11 22:15:00,52.6,39.1,30.13,NNW,333,6.0,8.0,60,0.00,,,0.00,WUHU216DAVISVP2,2013-05-12 03:15:00,
2013-05-11 22:20:00,52.6,38.8,30.13,NNW,338,5.0,8.0,59,0.00,,,0.00,WUHU216DAVISVP2,2013-05-12 03:20:00,
2013-05-11 22:25:00,52.6,38.8,30.13,NNW,329,3.0,8.0,59,0.00,,,0.00,WUHU216DAVISVP2,2013-05-12 03:25:00,
2013-05-11 22:30:00,52.6,38.2,30.13,NW,321,6.0,9.0,58,0.00,,,0.00,WUHU216DAVISVP2,2013-05-12 03:30:00,
2013-05-11 22:35:00,52.6,38.2,30.13,NNW,335,5.0,12.0,58,0.00,,,0.00,WUHU216DAVISVP2,2013-05-12 03:35:00,
2013-05-11 22:40:00,52.5,38.1,30.13,NNW,332,6.0,12.0,58,0.00,,,0.00,WUHU216DAVISVP2,2013-05-12 03:40:00,
2013-05-11 22:45:00,52.4,38.0,30.13,NNW,337,7.0,12.0,58,0.00,,,0.00,WUHU216DAVISVP2,2013-05-12 03:45:00,
2013-05-11 22:50:00,52.1,38.3,30.13,North,349,7.0,9.0,59,0.00,,,0.00,WUHU216DAVISVP2,2013-05-12 03:50:00,
2013-05-11 22:55:00,52.0,38.2,30.13,NNW,329,5.0,8.0,59,0.00,,,0.00,WUHU216DAVISVP2,2013-05-12 03:55:00,
2013-05-11 23:00:00,51.8,38.0,30.13,NNW,337,6.0,8.0,59,0.00,,,0.00,WUHU216DAVISVP2,2013-05-12 04:00:00,
2013-05-11 23:01:00,51.8,38.0,30.13,NNW,333,6.0,8.0,59,0.00,,,0.00,WUHU216DAVISVP2,2013-05-12 04:01:00,
2013-05-11 23:06:00,51.7,38.4,30.13,NNW,334,5.0,8.0,60,0.00,,,0.00,WUHU216DAVISVP2,2013-05-12 04:06:00,
2013-05-11 23:11:00,51.3,38.4,30.13,NNW,336,6.0,8.0,61,0.00,,,0.00,WUHU216DAVISVP2,2013-05-12 04:11:00,
2013-05-11 23:16:00,51.3,38.0,30.14,NNW,329,3.0,8.0,60,0.00,,,0.00,WUHU216DAVISVP2,2013-05-12 04:16:00,
2013-05-11 23:21:00,51.2,38.3,30.14,NNW,343,4.0,8.0,61,0.00,,,0.00,WUHU216DAVISVP2,2013-05-12 04:21:00,
2013-05-11 23:26:00,51.1,38.6,30.14,NW,320,4.0,7.0,62,0.00,,,0.00,WUHU216DAVISVP2,2013-05-12 04:26:00,
2013-05-11 23:31:00,50.9,37.5,30.14,NNW,337,6.0,7.0,60,0.00,,,0.00,WUHU216DAVISVP2,2013-05-12 04:31:00,
2013-05-11 23:36:00,50.9,37.9,30.14,NNW,337,5.0,8.0,61,0.00,,,0.00,WUHU216DAVISVP2,2013-05-12 04:36:00,
2013-05-11 23:41:00,50.8,37.8,30.14,NW,324,6.0,8.0,61,0.00,,,0.00,WUHU216DAVISVP2,2013-05-12 04:41:00,
2013-05-11 23:46:00,50.8,37.5,30.14,NW,316,6.0,10.0,60,0.00,,,0.00,WUHU216DAVISVP2,2013-05-12 04:46:00,
2013-05-11 23:51:00,50.8,37.5,30.14,NNW,339,5.0,10.0,60,0.00,,,0.00,WUHU216DAVISVP2,2013-05-12 04:51:00,
2013-05-11 23:56:00,50.5,37.6,30.14,NNW,333,4.0,8.0,61,0.00,,,0.00,WUHU216DAVISVP2,2013-05-12 04:56:00,